Location: Drocourt
(49.0571°N, 1.7669°E)
Time: 19:19:36
(UTC+00:00)

Courier 1B Rocket - Pass Details

Date: 22 April 2024
Orbit: 920 x 1201 km, 28.2° (Epoch: 25 May)

Event Time Altitude Azimuth Distance (km) Brightness Sun altitude
Exits shadow 03:34:23 - 200° (SSW) 3,369 7.3 -11.5°
Reaches altitude 10° 03:36:45 10° 184° (S) 3,037 7.2 -11.2°
Maximum altitude 03:38:45 11° 168° (SSE) 2,924 7.3 -10.9°
Drops below altitude 10° 03:40:44 10° 152° (SSE) 2,989 7.5 -10.6°
Sets 03:45:59 0° 121° (ESE) 3,871 8.5 -9.9°
